Time,TemperatureF,DewpointF,PressureIn,WindDirection,WindDirectionDegrees,WindSpeedMPH,WindSpeedGustMPH,Humidity,HourlyPrecipIn,Conditions,Clouds,dailyrainin,SoftwareType,DateUTC
2013-07-15 00:05:00,73.6,73.0,29.92,ESE,112,2.7,-999.0,98,-99.99,,,0.00,Acu-Link.com,2013-07-15 04:05:00,
2013-07-15 00:20:00,73.4,72.8,29.93,ESE,112,0.0,-999.0,98,-99.99,,,0.00,Acu-Link.com,2013-07-15 04:20:00,
2013-07-15 00:35:00,73.0,72.4,29.93,ESE,112,1.1,-999.0,98,-99.99,,,0.00,Acu-Link.com,2013-07-15 04:35:00,
2013-07-15 00:51:00,72.9,72.3,29.94,ESE,112,0.0,-999.0,98,-99.99,,,0.00,Acu-Link.com,2013-07-15 04:51:00,
2013-07-15 01:06:00,72.7,72.1,29.93,ESE,112,0.0,-999.0,98,-99.99,,,0.00,Acu-Link.com,2013-07-15 05:06:00,
2013-07-15 01:21:00,73.0,72.4,29.94,ESE,112,0.0,-999.0,98,-99.99,,,0.00,Acu-Link.com,2013-07-15 05:21:00,
2013-07-15 01:36:00,73.0,72.4,29.93,ESE,112,1.1,-999.0,98,-99.99,,,0.00,Acu-Link.com,2013-07-15 05:36:00,
2013-07-15 01:52:00,72.7,72.1,29.93,SE,135,0.0,-999.0,98,-99.99,,,0.00,Acu-Link.com,2013-07-15 05:52:00,
2013-07-15 02:07:00,72.9,72.3,29.92,ESE,112,0.0,-999.0,98,-99.99,,,0.00,Acu-Link.com,2013-07-15 06:07:00,
2013-07-15 02:22:00,72.9,72.3,29.92,East,90,1.7,-999.0,98,-99.99,,,0.00,Acu-Link.com,2013-07-15 06:22:00,
2013-07-15 02:38:00,73.0,72.4,29.92,East,90,2.2,-999.0,98,-99.99,,,0.00,Acu-Link.com,2013-07-15 06:38:00,
2013-07-15 02:53:00,73.2,72.6,29.92,East,90,1.7,-999.0,98,-99.99,,,0.00,Acu-Link.com,2013-07-15 06:53:00,
2013-07-15 03:08:00,73.8,73.2,29.91,ENE,67,2.7,-999.0,98,-99.99,,,0.00,Acu-Link.com,2013-07-15 07:08:00,
2013-07-15 03:24:00,73.6,73.0,29.91,ESE,112,1.1,-999.0,98,-99.99,,,0.00,Acu-Link.com,2013-07-15 07:24:00,
2013-07-15 03:39:00,73.6,73.0,29.92,ESE,112,2.2,-999.0,98,-99.99,,,0.00,Acu-Link.com,2013-07-15 07:39:00,
2013-07-15 03:54:00,73.6,73.0,29.92,East,90,2.7,-999.0,98,-99.99,,,0.00,Acu-Link.com,2013-07-15 07:54:00,
2013-07-15 04:09:00,73.2,72.6,29.92,ESE,112,2.7,-999.0,98,-99.99,,,0.00,Acu-Link.com,2013-07-15 08:09:00,
2013-07-15 04:24:00,73.0,72.4,29.91,East,90,1.1,-999.0,98,-99.99,,,0.00,Acu-Link.com,2013-07-15 08:24:00,
2013-07-15 04:40:00,73.0,72.4,29.91,ESE,112,0.0,-999.0,98,-99.99,,,0.00,Acu-Link.com,2013-07-15 08:40:00,
2013-07-15 04:55:00,73.2,72.6,29.92,ESE,112,1.1,-999.0,98,-99.99,,,0.00,Acu-Link.com,2013-07-15 08:55:00,
2013-07-15 05:10:00,73.0,72.4,29.92,NE,45,0.0,-999.0,98,-99.99,,,0.00,Acu-Link.com,2013-07-15 09:10:00,
2013-07-15 05:25:00,72.9,72.3,29.91,East,90,2.7,-999.0,98,-99.99,,,0.00,Acu-Link.com,2013-07-15 09:25:00,
2013-07-15 05:40:00,73.0,72.4,29.91,North,0,0.0,-999.0,98,-99.99,,,0.00,Acu-Link.com,2013-07-15 09:40:00,
2013-07-15 05:56:00,72.7,72.1,29.91,NE,45,1.1,-999.0,98,-99.99,,,0.00,Acu-Link.com,2013-07-15 09:56:00,
2013-07-15 06:11:00,72.7,72.1,29.91,NNE,22,0.0,-999.0,98,-99.99,,,0.00,Acu-Link.com,2013-07-15 10:11:00,
2013-07-15 06:26:00,72.7,72.1,29.91,NE,45,0.0,-999.0,98,-99.99,,,0.00,Acu-Link.com,2013-07-15 10:26:00,
2013-07-15 06:42:00,72.7,72.1,29.92,ENE,67,0.0,-999.0,98,-99.99,,,0.00,Acu-Link.com,2013-07-15 10:42:00,
2013-07-15 06:57:00,72.9,72.3,29.93,NNE,22,0.0,-999.0,98,-99.99,,,0.00,Acu-Link.com,2013-07-15 10:57:00,
2013-07-15 07:12:00,74.3,73.7,29.93,North,0,0.0,-999.0,98,-99.99,,,0.00,Acu-Link.com,2013-07-15 11:12:00,
2013-07-15 07:27:00,76.5,75.9,29.93,NNE,22,0.0,-999.0,98,-99.99,,,0.00,Acu-Link.com,2013-07-15 11:27:00,
2013-07-15 07:43:00,77.9,77.3,29.94,North,0,0.0,-999.0,98,-99.99,,,0.00,Acu-Link.com,2013-07-15 11:43:00,
2013-07-15 07:58:00,78.4,77.8,29.93,NNE,22,0.0,-999.0,98,-99.99,,,0.00,Acu-Link.com,2013-07-15 11:58:00,
2013-07-15 08:13:00,80.6,80.0,29.94,NE,45,1.1,-999.0,98,-99.99,,,0.00,Acu-Link.com,2013-07-15 12:13:00,
2013-07-15 08:28:00,82.2,80.3,29.94,NE,45,1.7,-999.0,94,-99.99,,,0.00,Acu-Link.com,2013-07-15 12:28:00,
2013-07-15 08:44:00,84.2,79.2,29.94,NNE,22,0.0,-999.0,85,-99.99,,,0.00,Acu-Link.com,2013-07-15 12:44:00,
2013-07-15 08:59:00,82.8,77.8,29.93,NNE,22,0.0,-999.0,85,-99.99,,,0.00,Acu-Link.com,2013-07-15 12:59:00,
2013-07-15 09:14:00,84.7,78.9,29.94,ESE,112,2.2,-999.0,83,-99.99,,,0.00,Acu-Link.com,2013-07-15 13:14:00,
2013-07-15 09:30:00,86.5,78.8,29.94,ESE,112,0.0,-999.0,78,-99.99,,,0.00,Acu-Link.com,2013-07-15 13:30:00,
2013-07-15 09:45:00,87.1,77.4,29.95,East,90,1.7,-999.0,73,-99.99,,,0.00,Acu-Link.com,2013-07-15 13:45:00,
2013-07-15 10:00:00,85.3,78.0,29.94,East,90,2.7,-999.0,79,-99.99,,,0.00,Acu-Link.com,2013-07-15 14:00:00,
2013-07-15 10:15:00,85.5,77.0,29.94,ESE,112,3.2,-999.0,76,-99.99,,,0.00,Acu-Link.com,2013-07-15 14:15:00,
2013-07-15 10:31:00,87.4,77.2,29.94,NE,45,0.0,-999.0,72,-99.99,,,0.00,Acu-Link.com,2013-07-15 14:31:00,
2013-07-15 10:46:00,89.6,75.3,29.94,ESE,112,1.1,-999.0,63,-99.99,,,0.00,Acu-Link.com,2013-07-15 14:46:00,
2013-07-15 11:01:00,86.5,75.1,29.94,East,90,2.7,-999.0,69,-99.99,,,0.00,Acu-Link.com,2013-07-15 15:01:00,
2013-07-15 11:17:00,86.2,73.9,29.94,NE,45,2.2,-999.0,67,-99.99,,,0.00,Acu-Link.com,2013-07-15 15:17:00,
2013-07-15 11:32:00,86.9,73.2,29.94,NE,45,2.2,-999.0,64,-99.99,,,0.00,Acu-Link.com,2013-07-15 15:32:00,
2013-07-15 11:47:00,87.8,73.1,29.94,NE,45,0.0,-999.0,62,-99.99,,,0.00,Acu-Link.com,2013-07-15 15:47:00,
2013-07-15 12:03:00,86.9,72.8,29.93,NE,45,0.0,-999.0,63,-99.99,,,0.00,Acu-Link.com,2013-07-15 16:03:00,
2013-07-15 12:18:00,89.1,72.9,29.93,NE,45,0.0,-999.0,59,-99.99,,,0.00,Acu-Link.com,2013-07-15 16:18:00,
2013-07-15 12:33:00,90.1,72.8,29.93,East,90,4.7,-999.0,57,-99.99,,,0.00,Acu-Link.com,2013-07-15 16:33:00,
2013-07-15 12:48:00,90.1,72.3,29.92,NNE,22,0.0,-999.0,56,-99.99,,,0.00,Acu-Link.com,2013-07-15 16:48:00,
2013-07-15 13:19:00,89.4,72.1,29.91,ESE,112,0.0,-999.0,57,-99.99,,,0.00,Acu-Link.com,2013-07-15 17:19:00,
2013-07-15 14:05:00,87.1,71.5,29.90,ENE,67,0.0,-999.0,60,-99.99,,,0.00,Acu-Link.com,2013-07-15 18:05:00,
2013-07-15 14:20:00,82.8,76.7,29.90,NE,45,7.8,-999.0,82,-99.99,,,0.00,Acu-Link.com,2013-07-15 18:20:00,
2013-07-15 14:35:00,81.5,77.6,29.90,NE,45,7.3,-999.0,88,-99.99,,,0.00,Acu-Link.com,2013-07-15 18:35:00,
2013-07-15 14:50:00,82.8,78.9,29.90,NNE,22,6.3,-999.0,88,-99.99,,,0.00,Acu-Link.com,2013-07-15 18:50:00,
2013-07-15 15:05:00,84.0,78.3,29.89,NE,45,7.8,-999.0,83,-99.99,,,0.00,Acu-Link.com,2013-07-15 19:05:00,
2013-07-15 15:21:00,84.9,76.9,29.89,NE,45,0.0,-999.0,77,-99.99,,,0.00,Acu-Link.com,2013-07-15 19:21:00,
2013-07-15 16:07:00,84.7,75.5,29.88,NNE,22,0.0,-999.0,74,-99.99,,,0.00,Acu-Link.com,2013-07-15 20:07:00,
2013-07-15 16:22:00,84.0,75.6,29.87,NNE,22,6.8,-999.0,76,-99.99,,,0.00,Acu-Link.com,2013-07-15 20:22:00,
2013-07-15 16:37:00,84.0,77.1,29.87,NNE,22,6.3,-999.0,80,-99.99,,,0.00,Acu-Link.com,2013-07-15 20:37:00,
2013-07-15 16:52:00,82.9,78.3,29.87,NNE,22,7.3,-999.0,86,-99.99,,,0.00,Acu-Link.com,2013-07-15 20:52:00,
2013-07-15 17:07:00,81.1,80.2,29.86,NNE,22,8.9,-999.0,97,-99.99,,,0.00,Acu-Link.com,2013-07-15 21:07:00,
2013-07-15 17:22:00,80.8,80.2,29.87,NNE,22,7.3,-999.0,98,-99.99,,,0.00,Acu-Link.com,2013-07-15 21:22:00,
2013-07-15 17:37:00,80.4,79.5,29.87,NE,45,6.8,-999.0,97,-99.99,,,0.00,Acu-Link.com,2013-07-15 21:37:00,
2013-07-15 18:08:00,81.1,78.9,29.86,NE,45,5.8,-999.0,93,-99.99,,,0.00,Acu-Link.com,2013-07-15 22:08:00,
2013-07-15 18:23:00,81.0,78.8,29.85,NNE,22,4.7,-999.0,93,-99.99,,,0.00,Acu-Link.com,2013-07-15 22:23:00,
2013-07-15 18:38:00,81.5,78.6,29.86,NNE,22,5.3,-999.0,91,-99.99,,,0.00,Acu-Link.com,2013-07-15 22:38:00,
2013-07-15 18:53:00,81.7,79.5,29.86,East,90,6.3,-999.0,93,-99.99,,,0.00,Acu-Link.com,2013-07-15 22:53:00,
2013-07-15 19:24:00,81.3,78.4,29.86,ESE,112,8.3,-999.0,91,-99.99,,,0.00,Acu-Link.com,2013-07-15 23:24:00,
2013-07-15 19:39:00,81.3,80.0,29.87,ESE,112,6.8,-999.0,96,-99.99,,,0.00,Acu-Link.com,2013-07-15 23:39:00,
2013-07-15 19:54:00,80.8,80.2,29.87,East,90,7.3,-999.0,98,-99.99,,,0.00,Acu-Link.com,2013-07-15 23:54:00,
2013-07-15 20:09:00,80.2,79.6,29.87,ESE,112,2.2,-999.0,98,-99.99,,,0.00,Acu-Link.com,2013-07-16 00:09:00,
2013-07-15 20:25:00,79.9,79.3,29.88,ESE,112,2.7,-999.0,98,-99.99,,,0.00,Acu-Link.com,2013-07-16 00:25:00,
2013-07-15 20:40:00,79.5,78.9,29.88,ESE,112,0.0,-999.0,98,-99.99,,,0.00,Acu-Link.com,2013-07-16 00:40:00,
2013-07-15 20:55:00,79.3,78.7,29.90,ESE,112,0.0,-999.0,98,-99.99,,,0.00,Acu-Link.com,2013-07-16 00:55:00,
2013-07-15 21:10:00,79.0,78.4,29.89,ESE,112,0.0,-999.0,98,-99.99,,,0.00,Acu-Link.com,2013-07-16 01:10:00,
2013-07-15 21:56:00,78.3,77.7,29.92,East,90,2.2,-999.0,98,-99.99,,,0.00,Acu-Link.com,2013-07-16 01:56:00,
2013-07-15 22:12:00,78.1,77.5,29.93,East,90,1.7,-999.0,98,-99.99,,,0.00,Acu-Link.com,2013-07-16 02:12:00,
2013-07-15 22:27:00,78.1,77.5,29.93,ESE,112,2.7,-999.0,98,-99.99,,,0.00,Acu-Link.com,2013-07-16 02:27:00,
2013-07-15 22:42:00,77.9,77.3,29.93,ESE,112,2.7,-999.0,98,-99.99,,,0.00,Acu-Link.com,2013-07-16 02:42:00,
2013-07-15 22:58:00,77.7,77.1,29.94,ESE,112,1.1,-999.0,98,-99.99,,,0.00,Acu-Link.com,2013-07-16 02:58:00,
2013-07-15 23:13:00,77.4,76.8,29.95,ESE,112,3.2,-999.0,98,-99.99,,,0.00,Acu-Link.com,2013-07-16 03:13:00,
2013-07-15 23:44:00,77.4,76.8,29.95,ESE,112,2.7,-999.0,98,-99.99,,,0.00,Acu-Link.com,2013-07-16 03:44:00,
2013-07-15 23:59:00,77.0,76.4,29.95,ESE,112,2.7,-999.0,98,-99.99,,,0.00,Acu-Link.com,2013-07-16 03:59:00,